Location: Bluff Heights
(33.7692°N, 118.1592°W)
Time: 21:01:46
(UTC+00:00)

First-Move - Pass Details

Date: 27 September 2021
Orbit: 574 x 666 km, 97.6° (Epoch: 16 October)

Event Time Altitude Azimuth Distance (km) Brightness Sun altitude
Rises 11:30:28 0° 31° (NNE) 2,838 ? -28.3°
Reaches altitude 10° 11:33:16 10° 51° (NE) 1,916 ? -27.7°
Maximum altitude 11:36:05 18° 94° (E) 1,472 ? -27.2°
Drops below altitude 10° 11:38:50 10° 137° (SE) 1,885 ? -26.6°
Sets 11:41:34 0° 157° (SSE) 2,772 ? -26.1°
